SCP
0 0 0 0 0 0 0 0 0 0 0 0 0 0 0 0 0 0 0 0 0 0 0 0 0 0 0 0 0 0 0 0 0 0 0 0 0 0 0 0 0 0 0 0
0 0 0 0 0 0 0 0 0 0 0 0 0 0 0 0 0 0 0 0 0 0 0 0 0 0 0 0 0 0 0 0 0 0 0 0 0 0 0 0 0 0 0 0
0 0 0 0 0 0 0 0 0 0 0 0 0 0 0 0 0 0 0 0 0 0 0 0 0 0 0 0 0 0 0 0 0 0 0 0 0 0 0 0 0 0 0 0
0 0 0 0 0 0 0 0 0 0 0 0 0 0 0 0 0 0 0 0 0 0 0 0 0 0 0 0 0 0 0 0 0 0 0 0 0 0 0 0 0 0 0 0
0 0 0 0 0 0 0 0 0 0 0 0 0 0 0 0 0 0 0 0 0 0 0 0 0 0 0 0 0 0 0 0 0 0 0 0 0 0 0 0 0 0 0 0
0 0 0 0 0 0 0 0 0 0 0 0 0 0 0 0 0 0 0 0 0 0 0 0 0 0 0 0 0 0 0 0 0 0 0 0 0 0 0 0 0 0 0 0
0 0 0 0 0 0 0 0 0 0 0 0 0 0 0 0 0 0 0 0 0 0 0 0 0 0 0 0 0 0 0 0 0 0 0 0 0 0 0 0 0 0 0 0
0 0 0 0 0 0 0 0 0 0 0 0 0 0 0 0 0 0 0 0 0 0 0 0 0 0 0 0 0 0 0 0 0 0 0 0 0 0 0 0 0 0 0 0
0 0 0 0 0 0 0 0 0 0 0 0 0 0 0 0 0 0 0 0 0 0 0 0 0 0 0 0 0 0 0 0 0 0 0 0 0 0 0 0 0 0 0 0
0 0 0 0 0 0 0 0 0 0 0 0 0 0 0 0 0 0 0 0 0 0 0 0 0 0 0 0 0 0 0 0 0 0 0 0 0 0 0 0 0 0 0 0
0 0 0 0 0 0 0 0 0 0 0 0 0 0 0 0 0 0 0 0 0 0 0 0 0 0 0 0 0 0 0 0 0 0 0 0 0 0 0 0 0 0 0 0
0 0 0 0 0 0 0 0 0 0 0 0 0 0 0 0 0 0 0 0 0 0 0 0 0 0 0 0 0 0 0 0 0 0 0 0 0 0 0 0 0 0 0 0
0 0 0 0 0 0 0 0 0 0 0 0 0 0 0 0 0 0 0 0 0 0 0 0 0 0 0 0 0 0 0 0 0 0 0 0 0 0 0 0 0 0 0 0
0 0 0 0 0 0 0 0 0 0 0 0 0 0 0 0 0 0 0 0 0 0 0 0 0 0 0 0 0 0 0 0 0 0 0 0 0 0 0 0 0 0 0 0
0 0 0 0 0 0 0 0 0 0 0 0 0 0 0 0 0 0 0 0 0 0 0 0 0 0 0 0 0 0 0 0 0 0 0 0 0 0 0 0 0 0 0 0
0 0 0 0 0 0 0 0 0 0 0 0 0 0 0 0 0 0 0 0 0 0 0 0 0 0 0 0 0 0 0 0 0 0 0 0 0 0 0 0 0 0 0 0
0 0 0 0 0 0 0 0 0 0 0 0 0 0 0 0 0 0 0 0 0 0 0 0 0 0 0 0 0 0 0 0 0 0 0 0 0 0 0 0 0 0 0 0
0 0 0 0 0 0 0 0 0 0 0 0 0 0 0 0 0 0 0 0 0 0 0 0 0 0 0 0 0 0 0 0 0 0 0 0 0 0 0 0 0 0 0 0
0 0 0 0 0 0 0 0 0 0 0 0 0 0 0 0 0 0 0 0 0 0 0 0 0 0 0 0 0 0 0 0 0 0 0 0 0 0 0 0 0 0 0 0
0 0 0 0 0 0 0 0 0 0 0 0 0 0 0 0 0 0 0 0 0 0 0 0 0 0 0 0 0 0 0 0 0 0 0 0 0 0 0 0 0 0 0 0
0 0 0 0 0 0 0 0 0 0 0 0 0 0 0 0 0 0 0 0 0 0 0 0 0 0 0 0 0 0 0 0 0 0 0 0 0 0 0 0 0 0 0 0
0 0 0 0 0 0 0 0 0 0 0 0 0 0 0 0 0 0 0 0 0 0 0 0 0 0 0 0 0 0 0 0 0 0 0 0 0 0 0 0 0 0 0 0
0 0 0 0 0 0 0 0 0 0 0 0 0 0 0 0 0 0 0 0 0 0 0 0 0 0 0 0 0 0 0 0 0 0 0 0 0 0 0 0 0 0 0 0
0 0 0 0 0 0 0 0 0 0 0 0 0 0 0 0 0 0 0 0 0 0 0 0 0 0 0 0 0 0 0 0 0 0 0 0 0 0 0 0 0 0 0 0
0 0 0 0 0 0 0 0 0 0 0 0 0 0 0 0 0 0 0 0 0 0 0 0 0 0 0 0 0 0 0 0 0 0 0 0 0 0 0 0 0 0 0 0
0 0 0 0 0 0 0 0 0 0 0 0 0 0 0 0 0 0 0 0 0 0 0 0 0 0 0 0 0 0 0 0 0 0 0 0 0 0 0 0 0 0 0 0
0 0 0 0 0 0 0 0 0 0 0 0 0 0 0 0 0 0 0 0 0 0 0 0 0 0 0 0 0 0 0 0 0 0 0 0 0 0 0 0 0 0 0 0
Wind_Speed
6 5 4 7 8 10 13 12 10 10 10 12 9 7 5 4 3 3 3 2 2 2 2 2 2 2 2 2 2 1 1 1 2 2 2 2 1 2 2 2 2 2 2 2
5 4 6 8 11 13 14 13 15 14 15 11 8 5 5 5 4 4 4 4 3 2 2 2 2 2 2 2 2 1 1 1 1 1 1 1 2 2 2 2 2 1 2 2
4 1 3 11 13 14 11 12 12 15 14 6 6 7 6 6 5 5 5 4 3 3 3 3 3 3 2 2 1 1 1 1 1 1 1 1 1 1 1 2 2 2 2 2
2 1 10 7 2 9 12 12 13 13 10 7 7 5 5 4 5 5 4 4 4 3 3 3 2 2 2 1 1 1 1 1 1 1 1 1 1 1 2 2 2 2 2 2
4 7 11 8 4 6 8 10 10 13 12 8 4 2 5 4 4 4 4 4 4 3 3 2 2 2 1 0 0 1 1 2 2 2 2 1 1 2 2 2 2 2 2 2
6 7 10 5 2 3 4 7 5 9 10 7 4 4 4 1 1 2 3 3 3 2 2 2 2 1 1 1 1 2 3 2 2 2 2 2 2 2 2 2 2 2 2 2
9 10 10 4 2 5 6 5 1 5 6 6 6 5 2 1 1 2 2 2 2 2 2 2 1 1 1 1 3 3 2 2 2 2 2 2 2 1 1 1 1 2 2 3
8 10 12 3 6 8 4 1 1 1 3 4 4 3 2 2 3 3 3 3 2 2 2 1 0 1 2 3 3 2 1 1 1 2 1 1 1 1 1 1 1 2 2 3
10 9 1 5 5 2 2 1 2 1 2 2 3 4 4 4 3 3 3 3 2 2 2 1 1 1 3 3 3 2 1 2 2 1 1 1 1 1 1 1 2 2 2 3
6 7 4 4 5 4 3 4 4 3 2 3 4 5 4 4 3 2 2 2 2 2 2 2 2 2 3 3 2 1 1 2 2 1 2 2 1 1 1 2 2 2 3 3
7 6 5 5 4 6 6 4 4 3 3 3 4 5 4 4 3 3 2 2 2 2 3 3 2 2 3 3 2 2 2 2 2 2 2 2 2 2 3 3 3 3 3 3
8 4 5 5 4 4 5 6 5 4 4 3 3 5 4 4 3 2 2 2 2 3 3 3 3 3 3 2 2 2 2 2 2 2 2 2 3 3 4 5 6 7 6 6
8 5 5 6 5 4 5 6 5 4 4 4 3 3 4 4 3 2 2 2 3 3 4 3 3 3 3 2 2 3 3 3 2 2 2 2 3 3 4 5 6 7 8 8
7 5 7 7 7 5 4 5 3 3 3 3 3 3 3 3 3 3 3 3 3 3 3 3 3 4 3 3 3 3 4 3 3 3 3 3 3 4 4 4 5 4 5 8
6 5 7 5 5 4 3 2 2 3 4 4 3 3 3 4 4 4 3 3 3 3 3 3 4 5 3 3 3 4 4 3 3 3 3 3 3 3 4 4 5 5 4 4
5 4 5 5 7 6 4 4 5 6 6 5 5 4 4 4 4 4 3 2 3 4 4 4 5 5 3 3 4 3 3 4 3 3 3 3 3 4 4 4 4 4 5 4
4 5 5 6 8 7 7 6 7 7 6 6 6 4 3 3 3 4 4 3 4 5 5 5 6 4 3 3 4 3 3 3 4 3 3 3 3 4 4 4 5 5 5 5
6 7 6 6 7 7 7 6 6 6 6 6 4 3 3 4 5 5 5 4 4 5 5 5 5 3 3 4 3 3 3 3 3 4 3 4 4 4 4 5 5 6 5 5
5 5 5 5 6 6 6 6 6 6 5 4 3 4 5 5 5 5 4 4 5 6 5 4 5 3 4 4 3 3 3 3 3 4 4 4 4 4 4 5 5 6 5 5
4 4 4 5 5 5 6 6 5 4 4 3 3 4 5 5 4 4 5 5 5 4 4 4 4 4 4 3 3 3 3 4 4 4 4 4 4 5 5 5 5 6 5 6
5 5 4 4 5 4 4 5 4 4 4 3 4 5 5 5 4 4 4 5 4 3 3 4 3 3 3 3 3 3 3 4 4 4 4 4 4 5 5 5 5 6 6 6
4 4 5 5 5 5 5 4 4 4 4 3 4 4 4 5 4 4 5 5 4 4 3 3 3 4 4 4 3 3 4 4 4 4 4 4 5 5 5 6 6 6 6 6
4 4 5 4 5 5 5 4 4 3 4 4 4 4 4 4 4 4 5 3 3 5 4 3 4 5 5 3 3 3 4 4 4 4 5 5 5 5 6 6 6 6 6 6
5 5 5 4 3 4 5 5 4 4 4 4 4 4 4 4 4 4 4 4 5 5 4 4 6 6 4 3 3 3 4 4 4 4 5 5 5 5 6 6 6 6 6 8
4 4 4 4 3 4 5 5 4 4 4 4 4 4 3 3 4 4 4 5 5 5 4 4 5 5 4 3 3 4 4 4 4 4 5 5 5 6 6 6 6 6 6 7
4 4 4 4 4 4 3 3 3 3 3 4 4 3 3 3 4 4 4 4 4 4 4 4 4 4 3 4 4 4 4 4 5 5 6 6 6 6 6 6 8 7 7 7
4 3 3 3 3 3 3 3 4 4 4 4 5 4 4 3 3 4 4 4 4 4 4 4 3 4 4 4 4 4 4 5 5 5 6 6 6 6 6 8 7 7 7 7
Wind_Direction
263 268 239 237 226 209 216 226 235 251 251 260 266 274 285 292 304 312 317 320 313 305 303 303 303 300 299 304 313 296 256 246 261 261 253 252 253 247 241 237 236 233 238 248
260 252 246 254 245 228 230 239 246 258 265 264 266 266 269 271 273 282 292 294 289 286 288 285 281 283 286 293 300 280 244 271 302 299 271 256 256 252 246 246 245 241 239 243
249 310 276 253 233 215 216 221 225 239 250 257 251 251 252 256 255 262 276 281 277 271 266 270 271 267 261 264 268 243 234 275 308 312 291 275 269 259 257 256 253 247 249 251
233 200 240 247 168 203 216 231 227 242 257 254 251 259 263 253 246 259 268 278 285 285 279 280 281 277 272 263 227 226 261 299 300 286 283 293 273 254 257 256 254 261 265 268
205 240 264 269 216 189 211 247 230 235 246 251 251 269 264 244 242 254 266 273 282 287 280 282 283 281 257 230 238 243 270 280 283 278 273 273 267 270 267 263 264 267 277 275
209 232 244 251 156 176 185 258 233 220 235 239 200 243 264 176 237 275 293 298 302 305 295 284 294 282 216 234 259 263 266 270 273 270 266 261 265 266 271 266 271 284 290 286
223 240 257 267 148 157 200 251 289 208 225 212 207 241 311 345 304 296 307 312 313 299 282 288 301 215 217 239 260 274 287 293 289 281 274 273 282 287 284 279 284 285 289 292
205 228 247 174 156 195 232 4 3 218 212 202 224 269 299 299 301 313 322 327 323 299 296 321 315 226 239 256 282 304 298 283 287 298 294 292 300 309 307 287 282 289 293 296
203 222 270 162 202 255 331 281 286 265 247 222 248 268 281 288 295 308 318 319 316 297 298 314 296 251 256 286 317 307 296 290 300 316 311 315 289 285 299 286 275 282 285 288
240 254 263 258 269 284 285 274 289 286 277 247 253 267 274 281 288 299 313 313 311 301 294 296 297 285 291 322 324 285 269 284 297 293 299 310 296 273 262 260 267 274 276 281
248 272 291 275 259 273 282 284 289 298 297 273 268 273 274 277 281 288 302 313 305 286 283 291 300 294 315 328 313 274 273 280 282 276 281 281 276 274 266 261 262 263 266 270
243 246 251 272 292 295 280 279 278 283 294 295 264 266 275 276 283 291 296 304 299 291 287 293 297 299 314 317 288 256 255 263 264 270 274 276 280 288 289 286 288 276 277 280
263 271 261 278 292 289 276 281 283 273 270 278 278 266 269 275 285 293 290 287 283 282 283 287 288 290 297 294 266 245 251 253 257 261 263 266 271 276 289 293 283 281 280 281
267 269 269 271 277 287 278 279 281 283 280 277 279 282 274 272 279 273 273 280 284 283 283 283 283 284 289 282 260 248 252 249 249 254 261 263 264 269 273 279 287 284 281 282
262 249 251 274 287 291 286 278 270 269 273 277 277 274 270 264 265 269 285 299 287 278 280 282 278 284 296 278 258 250 250 252 253 258 261 263 266 267 268 269 273 284 291 289
270 254 249 259 267 274 277 265 258 267 270 268 266 260 261 262 267 273 280 276 261 268 274 272 273 283 288 274 258 250 251 261 261 260 260 262 263 263 264 266 270 274 277 286
256 259 259 268 269 272 269 263 258 262 268 266 263 265 263 262 264 266 270 265 257 261 265 263 270 278 267 261 253 252 255 255 251 255 256 258 260 261 261 263 265 270 274 278
258 262 262 260 266 272 276 275 269 266 264 265 263 251 246 246 257 266 272 278 275 273 270 270 270 269 262 258 249 255 253 251 249 252 257 259 262 263 261 261 264 269 277 281
280 280 283 279 276 272 275 276 273 271 269 265 255 251 251 253 260 268 272 269 266 271 276 275 285 283 273 266 258 249 254 256 255 255 257 260 261 260 259 261 265 268 272 274
309 312 308 299 291 273 270 277 281 281 281 270 260 261 265 267 266 267 264 258 254 264 281 282 278 272 269 263 265 254 250 253 258 259 257 257 258 262 263 264 266 268 269 269
304 305 305 303 299 293 285 286 285 283 285 269 253 256 264 273 270 261 260 267 267 269 275 272 268 270 269 264 253 251 250 252 254 257 257 256 259 262 263 264 265 266 267 268
304 304 304 306 304 300 301 299 293 289 289 278 270 270 275 278 278 269 252 255 275 286 283 270 267 269 269 264 252 250 252 254 256 256 257 257 257 259 262 264 265 266 267 267
301 297 296 297 294 296 306 310 306 295 288 285 281 277 273 274 273 266 274 269 277 284 282 271 275 276 274 268 259 256 255 254 255 256 258 259 260 259 261 263 265 266 268 268
309 306 302 305 308 306 307 311 311 302 296 291 283 279 279 283 280 263 272 283 285 287 283 274 276 283 288 277 265 261 258 256 256 258 259 260 259 261 262 263 264 266 267 268
307 307 311 314 307 298 300 311 315 312 311 304 300 294 280 269 269 286 291 285 285 290 288 285 288 292 288 273 266 263 263 260 261 263 262 261 262 264 265 266 265 265 265 265
309 303 301 297 294 299 303 305 304 306 308 306 307 302 298 290 281 283 286 289 290 288 286 286 288 289 279 272 269 268 269 269 268 264 261 264 265 266 267 267 269 267 266 266
310 308 309 307 302 297 295 293 292 295 296 292 296 300 303 299 294 292 293 295 298 298 296 294 292 288 283 279 277 275 273 271 268 267 266 266 266 266 268 269 270 270 268 267